Location: Lake Zurich
(42.1970°N, 88.0930°W)
Time: 16:42:06
(UTC-05:00)

Amateur Radio Satellites - All Passes

Search period start: 23 April 2017 16:12
Search period end: 24 April 2017 16:12
Location: Lake Zurich, 42.1970°N, 88.0930°W

Satellite Date Start Highest point End Downlink Frequencies (MHz)
Time Altitude Azimuth
ITUPSAT 1 23 Apr 16:16:33 16:21:18 65° 287° (WNW) 16:26:01 437.325
YUBILEINY 23 Apr 16:36:19 16:45:04 76° 266° (W) 16:53:49 435.215
CUTE-I 23 Apr 16:43:25 16:45:40 13° 57° (ENE) 16:47:56 437.470
KKS-1 23 Apr 16:43:55 16:47:24 22° 94° (E) 16:50:50 437.445
CUBESAT XI-V 23 Apr 16:46:04 16:49:54 24° 94° (E) 16:53:42 437.345
ISS 23 Apr 16:48:41 16:51:46 41° 221° (SW) 16:54:51 437.550
Tancredo 1 23 Apr 16:54:17 16:56:57 27° 224° (SW) 16:59:38 437.200
RS-15 23 Apr 17:03:56 17:16:19 81° 56° (NE) 17:28:04 29.354- 29.394
DOVE 4 23 Apr 17:10:42 17:15:24 33° 68° (ENE) 17:20:05 437.250
BEESAT 2 23 Apr 17:10:54 17:13:29 16° 318° (NW) 17:16:07 435.950
XW-2D 23 Apr 17:10:58 17:13:12 15° 66° (ENE) 17:15:27 145.860 - 145.880
BEESAT 23 Apr 17:17:19 17:20:29 18° 297° (WNW) 17:23:39 436.000
XW-2B 23 Apr 17:17:28 17:20:00 18° 67° (ENE) 17:22:32 145.730 - 145.750
HO-68 23 Apr 17:19:23 17:21:59 12° 48° (NE) 17:24:34 435.675
LilacSat-2 23 Apr 17:23:44 17:26:40 22° 68° (ENE) 17:29:37 437.200
SO-50 23 Apr 17:24:28 17:28:06 24° 247° (WSW) 17:31:42 436.795
STARS 23 Apr 17:25:42 17:29:24 26° 96° (E) 17:33:04 437.465
XW-2C 23 Apr 17:28:38 17:31:39 24° 69° (ENE) 17:34:41 145.795 - 145.815
KAITUO 1B 23 Apr 17:35:17 17:38:11 22° 69° (ENE) 17:41:06 145.475/437.950
MOZHAYETS 4 23 Apr 17:42:36 17:45:43 18° 296° (WNW) 17:48:50
XW-2F 23 Apr 17:56:11 17:59:46 48° 74° (ENE) 18:03:23 145.980 - 146.000
NUDT-PHONESAT 23 Apr 18:18:31 18:22:10 78° 76° (ENE) 18:25:51 437.300
CUTE-I 23 Apr 18:19:33 18:24:54 87° 75° (ENE) 18:30:17 437.470
KKS-1 23 Apr 18:19:59 18:24:01 35° 291° (WNW) 18:28:02 437.445
CUBESAT XI-V 23 Apr 18:23:01 18:27:19 36° 290° (WNW) 18:31:37 437.345
CUTE 1.7 + AOD 2 23 Apr 18:27:31 18:30:13 17° 65° (ENE) 18:32:56 437.475
YUBILEINY 23 Apr 18:36:12 18:40:16 14° 286° (WNW) 18:44:21 435.215
XW-2D 23 Apr 18:43:36 18:47:05 37° 262° (W) 18:50:36 145.860 - 145.880
DOVE 4 23 Apr 18:48:16 18:53:00 33° 265° (W) 18:57:44 437.250
XW-2B 23 Apr 18:50:35 18:53:57 32° 263° (W) 18:57:21 145.730 - 145.750
SEEDS 23 Apr 18:53:50 18:56:58 21° 67° (ENE) 19:00:07 437.485
CUBEBUG 2 23 Apr 18:56:14 18:59:02 17° 65° (ENE) 19:01:48 437.445
LilacSat-2 23 Apr 18:57:41 19:00:50 25° 265° (W) 19:04:00 437.200
HO-68 23 Apr 19:01:16 19:08:15 60° 68° (ENE) 19:15:16 435.675
STARS 23 Apr 19:01:56 19:05:41 28° 292° (WNW) 19:09:25 437.465
XW-2C 23 Apr 19:02:45 19:05:46 23° 265° (W) 19:08:48 145.795 - 145.815
KAITUO 1B 23 Apr 19:09:05 19:12:06 24° 265° (W) 19:15:08 145.475/437.950
STRAND 1 23 Apr 19:10:54 19:14:04 16° 91° (E) 19:17:12 437.568
RS-15 23 Apr 19:17:47 19:27:25 29° 258° (WSW) 19:36:44 29.354- 29.394
XW-2A 23 Apr 19:23:54 19:27:16 75° 75° (ENE) 19:30:37 145.665 - 145.685
XW-2F 23 Apr 19:33:05 19:34:12 11° 270° (W) 19:35:19 145.980 - 146.000
M-CUBED/EXP-1 PRIME 23 Apr 19:41:19 19:44:42 23° 98° (E) 19:47:52 437.505
ZACube-1 23 Apr 19:53:21 19:56:40 23° 68° (ENE) 19:59:58 437.345
CUTE 1.7 + AOD 2 23 Apr 20:01:40 20:05:41 44° 262° (W) 20:09:45 437.475
AO-73 23 Apr 20:02:08 20:05:37 26° 69° (ENE) 20:09:03 145.935
CUTE-I 23 Apr 20:03:47 20:05:37 12° 272° (W) 20:07:28 437.470
AAUSAT CUBESAT 2 23 Apr 20:11:04 20:15:10 72° 76° (ENE) 20:19:20 437.432
Oscar 11 23 Apr 20:21:28 20:25:22 35° 70° (ENE) 20:29:18 .
O/OREOS (USA 219) 23 Apr 20:21:39 20:25:50 33° 60° (ENE) 20:29:59 437.305
UWE-3 23 Apr 20:25:04 20:29:23 90° 222° (SW) 20:33:38 435.000/436.395/437.385
SEEDS 23 Apr 20:28:38 20:32:26 34° 263° (W) 20:36:16 437.485
CUBEBUG 2 23 Apr 20:31:03 20:35:19 46° 261° (W) 20:39:29 437.445
NO-84 23 Apr 20:39:35 20:43:04 44° 135° (SE) 20:46:16 435.350 FM
STRAND 1 23 Apr 20:48:36 20:53:38 60° 288° (WNW) 20:58:38 437.568
HO-68 23 Apr 20:50:31 20:56:21 27° 266° (W) 21:02:14 435.675
M-CUBED/EXP-1 PRIME 23 Apr 21:15:19 21:19:11 32° 297° (WNW) 21:22:47 437.505
AO-85 23 Apr 21:24:00 21:27:07 22° 46° (NE) 21:30:18 145.980
OBJECT BX 23 Apr 21:24:02 21:27:21 35° 72° (ENE) 21:30:41 145.990 - 145.960
DELFI C3 23 Apr 21:26:10 21:30:02 52° 74° (ENE) 21:33:56 145.870
ZACube-1 23 Apr 21:29:04 21:32:49 30° 264° (W) 21:36:31 437.345
AO-73 23 Apr 21:38:12 21:41:46 27° 264° (W) 21:45:19 145.935
Oscar 11 23 Apr 21:58:23 22:01:35 20° 267° (W) 22:04:49 .
O/OREOS (USA 219) 23 Apr 22:01:20 22:05:05 25° 257° (WSW) 22:08:47 437.305
PRISM 23 Apr 22:06:42 22:10:26 31° 97° (E) 22:14:08 437.425
FO-29 23 Apr 22:15:48 22:19:40 20° 94° (E) 22:23:37 435.910
NO-84 23 Apr 22:17:52 22:20:42 24° 330° (NNW) 22:23:22 435.350 FM
BEESAT 3 23 Apr 22:20:41 22:23:19 17° 42° (NE) 22:25:57 437.485
LO-87 23 Apr 22:38:56 22:42:20 38° 72° (ENE) 22:45:44 145.935 - 145.965
ESTCUBE 1 23 Apr 22:49:45 22:53:45 32° 69° (ENE) 22:57:45 437.505/2401.250
TIGRISAT 23 Apr 22:53:07 22:57:21 60° 101° (E) 23:01:35 435.000
OBJECT BX 23 Apr 22:59:05 23:01:10 15° 268° (W) 23:03:15 145.990 - 145.960
DELFI C3 23 Apr 23:03:34 23:05:08 12° 270° (W) 23:06:42 145.870
AO-85 23 Apr 23:03:53 23:07:36 39° 243° (WSW) 23:11:29 145.980
SPROUT 23 Apr 23:11:04 23:13:21 14° 63° (ENE) 23:15:38 437.525
UNISAT 6 23 Apr 23:13:19 23:17:36 74° 285° (WNW) 23:21:54 437.425
VELOX 1 23 Apr 23:18:23 23:21:34 20° 65° (ENE) 23:24:46 145.980
EO-79 23 Apr 23:29:27 23:30:37 11° 90° (E) 23:31:48 145.935-145.965
DUCHIFAT 1 23 Apr 23:35:54 23:36:36 10° 89° (E) 23:37:18 145.980
50 SAT 23 Apr 23:36:29 23:38:07 13° 65° (ENE) 23:39:47 437.505
PRISM 23 Apr 23:42:18 23:45:32 22° 294° (WNW) 23:48:44 437.425
BEESAT 2 23 Apr 23:48:38 23:52:32 42° 52° (NE) 23:56:23 435.950
UKube-1 23 Apr 23:56:03 23:58:09 13° 62° (ENE) 00:00:16 .
BEESAT 3 23 Apr 23:57:19 00:01:17 61° 241° (WSW) 00:05:13 437.485
FO-29 24 Apr 00:00:04 00:05:02 47° 290° (WNW) 00:10:10 435.910
POLYITAN 1 24 Apr 00:05:34 00:09:14 29° 96° (E) 00:12:53 437.675
QB50P2 24 Apr 00:11:49 00:15:44 36° 98° (E) 00:19:37 145.880/145.840
LO-87 24 Apr 00:14:04 00:15:56 14° 268° (W) 00:17:49 145.935 - 145.965
DX 1 24 Apr 00:20:07 00:24:02 33° 69° (ENE) 00:27:59 434.975-435.025
ESTCUBE 1 24 Apr 00:26:51 00:30:33 25° 265° (W) 00:34:17 437.505/2401.250
TIGRISAT 24 Apr 00:31:32 00:33:33 13° 297° (WNW) 00:35:33 435.000
AIST 2D 24 Apr 00:35:30 00:38:57 53° 285° (WNW) 00:42:22 435.315
NANOSAT C BR1 24 Apr 00:36:56 00:41:04 60° 100° (E) 00:45:11 145.865
SPROUT 24 Apr 00:44:35 00:48:48 56° 260° (W) 00:53:01 437.525
BUGSAT 1 24 Apr 00:48:52 00:52:01 22° 95° (E) 00:55:08 437.445
VELOX 1 24 Apr 00:53:29 00:57:42 42° 261° (W) 01:01:59 145.980
EO-79 24 Apr 01:02:38 01:06:47 63° 286° (WNW) 01:10:55 145.935-145.965
50 SAT 24 Apr 01:07:26 01:10:42 39° 261° (W) 01:14:01 437.505
DUCHIFAT 1 24 Apr 01:08:33 01:12:41 66° 286° (WNW) 01:16:49 145.980
Oscar 19 24 Apr 01:13:59 01:17:13 16° 91° (E) 01:20:24 437.125/150
BEESAT 2 24 Apr 01:27:10 01:29:59 18° 249° (WSW) 01:32:48 435.950
UKube-1 24 Apr 01:29:22 01:33:39 62° 258° (WSW) 01:37:58 .
POLYITAN 1 24 Apr 01:41:30 01:44:54 24° 292° (WNW) 01:48:17 437.675
ITUPSAT 1 24 Apr 01:47:41 01:50:53 18° 63° (ENE) 01:54:05 437.325
QB50P2 24 Apr 01:48:13 01:51:16 20° 294° (WNW) 01:54:18 145.880/145.840
DX 1 24 Apr 01:56:46 02:00:15 23° 265° (W) 02:03:46 434.975-435.025
NANOSAT C BR1 24 Apr 02:14:23 02:16:17 13° 297° (WNW) 02:18:11 145.865
BUGSAT 1 24 Apr 02:23:54 02:27:23 29° 291° (WNW) 02:30:50 437.445
Gurwin Techsat 1B 24 Apr 02:27:59 02:33:06 47° 99° (E) 02:38:12 435.225
BEESAT 24 Apr 02:45:04 02:49:46 66° 73° (ENE) 02:54:29 436.000
Oscar 19 24 Apr 02:51:47 02:56:57 63° 287° (WNW) 03:02:04 437.125/150
MOZHAYETS 4 24 Apr 03:06:35 03:10:57 48° 72° (ENE) 03:15:20
NO-84 24 Apr 03:13:33 03:16:15 34° 34° (NE) 03:18:53 435.350 FM
PCSat 24 Apr 03:17:39 03:23:02 77° 118° (ESE) 03:28:29 145.827
ITUPSAT 1 24 Apr 03:23:40 03:28:18 52° 260° (W) 03:32:58 437.325
KKS-1 24 Apr 03:42:25 03:45:56 23° 66° (ENE) 03:49:27 437.445
YUBILEINY 24 Apr 03:43:14 03:50:01 26° 81° (E) 03:56:47 435.215
CUBESAT XI-V 24 Apr 03:49:51 03:53:37 25° 67° (ENE) 03:57:25 437.345
Gurwin Techsat 1B 24 Apr 04:08:35 04:12:45 24° 296° (WNW) 04:16:54 435.225
AO-7 24 Apr 04:09:40 04:17:44 52° 102° (ESE) 04:25:47 .
ITAMSAT 1 24 Apr 04:10:40 04:15:50 65° 102° (ESE) 04:20:57 435.822/435.867
STARS 24 Apr 04:22:41 04:26:21 26° 67° (ENE) 04:30:01 437.465
BEESAT 24 Apr 04:25:41 04:27:58 13° 270° (W) 04:30:17 436.000
MOZHAYETS 4 24 Apr 04:45:29 04:48:22 17° 269° (W) 04:51:17
NO-84 24 Apr 04:51:35 04:53:32 17° 231° (SW) 04:55:28 435.350 FM
PCSat 24 Apr 05:03:08 05:07:04 20° 317° (NW) 05:11:00 145.827
KKS-1 24 Apr 05:18:10 05:22:17 35° 262° (W) 05:26:25 437.445
CUBESAT XI-V 24 Apr 05:26:36 05:30:49 34° 263° (W) 05:35:05 437.345
YUBILEINY 24 Apr 05:37:24 05:46:02 67° 281° (W) 05:54:43 435.215
ITAMSAT 1 24 Apr 05:51:28 05:54:45 17° 299° (WNW) 05:58:03 435.822/435.867
STARS 24 Apr 05:58:42 06:02:35 30° 263° (W) 06:06:28 437.465
SO-50 24 Apr 06:01:59 06:02:46 10° 107° (ESE) 06:03:31 436.795
AO-7 24 Apr 06:02:49 06:10:15 39° 301° (WNW) 06:17:43 .
XW-2D 24 Apr 06:15:52 06:18:44 20° 94° (E) 06:21:35 145.860 - 145.880
XW-2B 24 Apr 06:22:33 06:25:38 23° 95° (E) 06:28:42 145.730 - 145.750
M-CUBED/EXP-1 PRIME 24 Apr 06:26:18 06:30:26 34° 64° (ENE) 06:34:40 437.505
STRAND 1 24 Apr 06:26:55 06:31:05 26° 65° (ENE) 06:35:15 437.568
LilacSat-2 24 Apr 06:29:45 06:33:10 30° 97° (E) 06:36:34 437.200
XW-2C 24 Apr 06:34:01 06:37:28 32° 97° (E) 06:40:54 145.795 - 145.815
CUTE-I 24 Apr 06:36:24 06:41:11 33° 96° (E) 06:45:55 437.470
KAITUO 1B 24 Apr 06:39:08 06:42:27 29° 96° (E) 06:45:46 145.475/437.950
DOVE 4 24 Apr 06:46:33 06:51:17 74° 102° (ESE) 06:55:42 437.250
XW-2F 24 Apr 07:01:33 07:05:20 69° 102° (ESE) 07:09:07 145.980 - 146.000
NUDT-PHONESAT 24 Apr 07:22:07 07:25:50 79° 284° (WNW) 07:29:33 437.300
RS-15 24 Apr 07:26:44 07:38:02 51° 110° (ESE) 07:49:41 29.354- 29.394
SO-50 24 Apr 07:37:53 07:42:31 88° 302° (WNW) 07:47:07 436.795
YUBILEINY 24 Apr 07:40:46 07:44:45 14° 304° (NW) 07:48:46 435.215
CUTE 1.7 + AOD 2 24 Apr 07:45:58 07:49:43 29° 95° (E) 07:53:28 437.475
XW-2D 24 Apr 07:49:39 07:52:56 28° 290° (WNW) 07:56:13 145.860 - 145.880
AAUSAT CUBESAT 2 24 Apr 07:55:05 07:56:10 11° 89° (E) 07:57:14 437.432
XW-2B 24 Apr 07:56:38 07:59:45 24° 291° (WNW) 08:02:53 145.730 - 145.750
M-CUBED/EXP-1 PRIME 24 Apr 08:00:58 08:04:50 27° 260° (W) 08:08:49 437.505
LilacSat-2 24 Apr 08:04:27 08:07:15 20° 292° (WNW) 08:10:03 437.200
STRAND 1 24 Apr 08:05:15 08:10:03 40° 262° (W) 08:14:51 437.568
XW-2C 24 Apr 08:08:47 08:11:26 18° 293° (WNW) 08:14:05 145.795 - 145.815
SEEDS 24 Apr 08:11:28 08:15:24 36° 97° (E) 08:19:19 437.485
KAITUO 1B 24 Apr 08:13:32 08:16:17 20° 292° (WNW) 08:19:02 145.475/437.950
UWE-3 24 Apr 08:14:59 08:17:39 16° 92° (E) 08:20:21 435.000/436.395/437.385
HO-68 24 Apr 08:15:44 08:22:51 60° 102° (ESE) 08:29:55 435.675
CUTE-I 24 Apr 08:16:28 08:21:10 33° 293° (WNW) 08:25:51 437.470
XW-2A 24 Apr 08:17:48 08:21:09 75° 102° (ESE) 08:24:30 145.665 - 145.685
CUBEBUG 2 24 Apr 08:21:12 08:24:55 31° 96° (E) 08:28:39 437.445
DOVE 4 24 Apr 08:26:13 08:28:15 13° 300° (WNW) 08:30:13 437.250
FO-29 24 Apr 08:31:46 08:33:47 12° 58° (ENE) 08:35:45 435.910
UNISAT 6 24 Apr 08:39:44 08:40:32 10° 61° (ENE) 08:41:20 437.425
PRISM 24 Apr 08:56:27 08:59:51 25° 67° (ENE) 09:03:17 437.425
ZACube-1 24 Apr 09:15:56 09:19:58 44° 99° (E) 09:24:03 437.345
SO-50 24 Apr 09:20:59 09:23:39 15° 323° (NW) 09:26:18 436.795
CUTE 1.7 + AOD 2 24 Apr 09:21:55 09:25:27 25° 292° (WNW) 09:28:57 437.475
AO-73 24 Apr 09:24:29 09:28:35 50° 99° (E) 09:32:43 145.935
AAUSAT CUBESAT 2 24 Apr 09:27:52 09:32:02 64° 286° (WNW) 09:36:10 437.432
Tancredo 1 24 Apr 09:28:09 09:31:11 54° 142° (SE) 09:34:14 437.200
ISS 24 Apr 09:28:34 09:31:40 42° 140° (SE) 09:34:46 437.550
RS-15 24 Apr 09:38:38 09:50:31 56° 314° (NW) 10:02:41 29.354- 29.394
Oscar 11 24 Apr 09:43:31 09:47:52 70° 102° (ESE) 09:52:11 .
SEEDS 24 Apr 09:47:41 09:50:51 21° 293° (WNW) 09:54:00 437.485
UWE-3 24 Apr 09:50:22 09:54:18 41° 288° (WNW) 09:58:16 435.000/436.395/437.385
TIGRISAT 24 Apr 09:51:56 09:56:15 55° 73° (ENE) 10:00:29 435.000
CUBEBUG 2 24 Apr 09:58:12 10:01:23 22° 293° (WNW) 10:04:36 437.445
HO-68 24 Apr 10:04:11 10:10:07 29° 301° (WNW) 10:16:03 435.675
FO-29 24 Apr 10:11:37 10:18:07 75° 73° (ENE) 10:23:51 435.910
UNISAT 6 24 Apr 10:12:11 10:16:37 82° 257° (WSW) 10:20:58 437.425
PCSat 24 Apr 10:23:16 10:26:01 14° 37° (NE) 10:28:46 145.827
OBJECT BX 24 Apr 10:25:34 10:29:05 42° 99° (E) 10:32:34 145.990 - 145.960
PRISM 24 Apr 10:31:27 10:35:02 28° 264° (W) 10:38:38 437.425
O/OREOS (USA 219) 24 Apr 10:34:22 10:38:30 34° 105° (ESE) 10:42:40 437.305
DELFI C3 24 Apr 10:37:09 10:41:12 83° 102° (ESE) 10:45:11 145.870
ZACube-1 24 Apr 10:53:16 10:55:55 17° 295° (WNW) 10:58:36 437.345
POLYITAN 1 24 Apr 10:58:42 11:02:05 24° 67° (ENE) 11:05:28 437.675
AO-73 24 Apr 11:02:02 11:04:25 15° 296° (WNW) 11:06:50 145.935
Tancredo 1 24 Apr 11:04:39 11:07:17 25° 339° (NNW) 11:09:55 437.200
QB50P2 24 Apr 11:04:48 11:08:29 30° 69° (ENE) 11:12:10 145.880/145.840
ISS 24 Apr 11:05:18 11:08:13 29° 337° (NNW) 11:11:08 437.550
AIST 2D 24 Apr 11:09:58 11:13:21 52° 75° (ENE) 11:16:45 435.315
Oscar 11 24 Apr 11:21:42 11:23:25 12° 298° (WNW) 11:25:08 .
NANOSAT C BR1 24 Apr 11:29:07 11:33:09 46° 72° (ENE) 11:37:11 145.865
TIGRISAT 24 Apr 11:31:02 11:33:14 14° 269° (W) 11:35:26 435.000
LO-87 24 Apr 11:38:36 11:42:03 43° 99° (E) 11:45:26 145.935 - 145.965
BUGSAT 1 24 Apr 11:39:19 11:42:09 18° 66° (ENE) 11:44:58 437.445
EO-79 24 Apr 11:54:55 11:59:09 82° 257° (WSW) 12:03:24 145.935-145.965
RS-15 24 Apr 11:56:43 12:06:39 27° 345° (NNW) 12:16:35 29.354- 29.394
FO-29 24 Apr 11:59:40 12:03:34 17° 268° (W) 12:07:15 435.910
DUCHIFAT 1 24 Apr 12:00:13 12:04:25 87° 251° (WSW) 12:08:39 145.980
OBJECT BX 24 Apr 12:00:37 12:02:23 13° 295° (WNW) 12:04:10 145.990 - 145.960
PCSat 24 Apr 12:05:02 12:10:29 67° 58° (ENE) 12:15:52 145.827
Gurwin Techsat 1B 24 Apr 12:14:05 12:15:41 11° 56° (ENE) 12:17:18 435.225
O/OREOS (USA 219) 24 Apr 12:14:06 12:17:57 26° 303° (WNW) 12:21:49 437.305
ESTCUBE 1 24 Apr 12:17:38 12:22:10 65° 101° (E) 12:26:41 437.505/2401.250
SPROUT 24 Apr 12:30:13 12:33:35 23° 94° (E) 12:36:56 437.525
Oscar 19 24 Apr 12:30:56 12:35:09 26° 65° (ENE) 12:39:23 437.125/150
50 SAT 24 Apr 12:32:02 12:33:20 12° 92° (E) 12:34:38 437.505
POLYITAN 1 24 Apr 12:34:02 12:37:44 30° 263° (W) 12:41:28 437.675
QB50P2 24 Apr 12:40:50 12:44:16 24° 265° (W) 12:47:41 145.880/145.840
Tancredo 1 24 Apr 12:42:11 12:44:00 14° 359° (N) 12:45:49 437.200
VELOX 1 24 Apr 12:42:53 12:46:55 33° 97° (E) 12:50:54 145.980
ISS 24 Apr 12:43:23 12:45:27 16° 357° (N) 12:47:32 437.550
NANOSAT C BR1 24 Apr 13:06:36 13:09:05 15° 268° (W) 13:11:35 145.865
BUGSAT 1 24 Apr 13:13:17 13:17:13 40° 262° (W) 13:21:07 437.445
LO-87 24 Apr 13:13:35 13:15:05 12° 295° (WNW) 13:16:35 145.935 - 145.965
UKube-1 24 Apr 13:16:32 13:19:45 20° 94° (E) 13:22:56 .
AO-85 24 Apr 13:18:17 13:22:30 53° 119° (ESE) 13:26:29 145.980
AO-7 24 Apr 13:20:43 13:25:45 18° 47° (NE) 13:30:46 .
DX 1 24 Apr 13:43:13 13:47:33 57° 101° (E) 13:51:49 434.975-435.025
BEESAT 3 24 Apr 13:48:20 13:51:05 18° 111° (ESE) 13:53:52 437.485
Gurwin Techsat 1B 24 Apr 13:49:26 13:54:44 78° 74° (ENE) 14:00:05 435.225
PCSat 24 Apr 13:49:49 13:53:17 17° 255° (WSW) 13:56:44 145.827
ITAMSAT 1 24 Apr 13:52:43 13:55:29 15° 59° (ENE) 13:58:14 435.822/435.867
YUBILEINY 24 Apr 13:52:59 13:56:40 13° 55° (NE) 14:00:21 435.215
ESTCUBE 1 24 Apr 13:56:06 13:58:25 14° 298° (WNW) 14:00:44 437.505/2401.250
50 SAT 24 Apr 14:03:11 14:06:29 40° 288° (WNW) 14:09:45 437.505
SPROUT 24 Apr 14:05:46 14:09:31 31° 291° (WNW) 14:13:15 437.525
Oscar 19 24 Apr 14:09:25 14:14:15 40° 262° (W) 14:19:08 437.125/150
RS-15 24 Apr 14:14:19 14:24:39 29° 21° (NNE) 14:34:43 29.354- 29.394
Tancredo 1 24 Apr 14:18:11 14:20:45 23° 19° (NNE) 14:23:19 437.200
VELOX 1 24 Apr 14:19:39 14:23:11 24° 294° (WNW) 14:26:43 145.980
ISS 24 Apr 14:20:09 14:22:48 22° 17° (NNE) 14:25:26 437.550
SO-50 24 Apr 14:29:31 14:32:11 15° 38° (NE) 14:34:50 436.795
BEESAT 24 Apr 14:45:52 14:48:45 16° 92° (E) 14:51:36 436.000
UKube-1 24 Apr 14:51:54 14:55:53 36° 290° (WNW) 14:59:50 .
AO-85 24 Apr 15:00:13 15:03:08 18° 316° (NW) 15:06:00 145.980
MOZHAYETS 4 24 Apr 15:03:27 15:04:39 11° 89° (E) 15:05:50
AO-7 24 Apr 15:08:53 15:17:07 73° 68° (ENE) 15:25:23 .
BEESAT 2 24 Apr 15:17:24 15:21:18 65° 120° (ESE) 15:25:18 435.950
DX 1 24 Apr 15:20:50 15:23:15 15° 298° (WNW) 15:25:40 434.975-435.025
ITUPSAT 1 24 Apr 15:23:32 15:27:58 37° 98° (E) 15:32:22 437.325
BEESAT 3 24 Apr 15:24:38 15:28:23 40° 309° (NW) 15:32:11 437.485
ITAMSAT 1 24 Apr 15:29:05 15:34:17 79° 257° (WSW) 15:39:30 435.822/435.867
Gurwin Techsat 1B 24 Apr 15:32:50 15:35:16 13° 271° (W) 15:37:43 435.225
YUBILEINY 24 Apr 15:46:46 15:55:29 64° 78° (ENE) 16:04:11 435.215
Tancredo 1 24 Apr 15:53:49 15:56:54 64° 216° (SW) 15:59:58 437.200
ISS 24 Apr 15:56:19 15:59:34 81° 218° (SW) 16:02:49 437.550
